Darstellungsparameter: Aktuell verwendete Einstellungen:
Skalierung der Graphiken ... ?
xyx+y,   Skalierungsfaktor:      Skalierung: Modus: x, Faktor: 1
Darstellungszeitraum ... ?
Vom - - bis: - -   Zeitraum: 15.04.2021 - 15.04.2021
Min/Max/Avg-Anzeige ... ?
Zeige MMA aktuell
Zeige MMA Monat
Zeige MMA alles
Zeige --A aktuell
Zeige --A Monat
Zeige --A alles
Keine MMA-Anzeige
MMA:
Average (ber die Originaldaten)
MMA-Basis: 15.04.2021 - 15.04.2021
Quicknavigation für Darstellung... ?
Tage:      1T, 2T, 3T, 5T -1T -2T -3T -5T +1T +2T +3T +5T
Wochen: 1W, 2W, 3W -1W -2W -3W +1W +2W +3W
Monate: 1M, 3M, 6M -1M -3M -6M +1M +3M +6M
Jahre:    1J, 3J, 5J, 10J -1J -3J -5J -10J +1J +3J +5J +10J
Nutze für die Darstellung ... ?
Originaldaten oder Mittelwerte auf ...
Stundenbasis Tagesbasis Wochenbasis
Monatsbasis Jahresbasis      Datenbasis: Original-Daten
Darstellen als:
Statistik (Auto) Statistik J:M      Darstellung:

Der gewünschte Datumsbereich war nicht gültig/verfügbar und wurde korrigiert....
Das angegebene Enddatum (24.04.2030 23:59:59) liegt in der Zukunft.
Das angegebene Startdatum (26.01.2030 00:00:00) liegt in der Zukunft.


Zur Graphik,    zurück zur Übersicht aller Sensoren.
 
Tabellarische Datenbersicht: ?
 
Sensor: Nr:Datum:Temp:Abs-Feuchte:Windchill:Wind:
Aussen-T/F 1 15-04-2021 02:00:00 0.2 C 4.52 g/m*3 0.2 C 0 km/h
2 15-04-2021 02:05:00 0.1 C 4.49 g/m*3 0.1 C 0 km/h
3 15-04-2021 02:10:00 0 C 4.46 g/m*3 0 C 0 km/h
4 15-04-2021 02:15:00 -0.1 C 4.43 g/m*3 -0.1 C 0 km/h
5 15-04-2021 02:20:00 -0.1 C 4.43 g/m*3 -0.1 C 0 km/h
6 15-04-2021 02:25:00 -0.2 C 4.44 g/m*3 -0.2 C 0 km/h
7 15-04-2021 02:30:00 -0.2 C 4.44 g/m*3 -0.2 C 0 km/h
8 15-04-2021 02:35:00 -0.3 C 4.41 g/m*3 -0.3 C 0 km/h
9 15-04-2021 02:40:00 -0.3 C 4.41 g/m*3 -0.3 C 0 km/h
10 15-04-2021 02:45:00 -0.3 C 4.41 g/m*3 -0.3 C 0 km/h
11 15-04-2021 02:50:00 -0.3 C 4.41 g/m*3 -0.3 C 0 km/h
12 15-04-2021 02:55:00 -0.3 C 4.41 g/m*3 -0.3 C 0 km/h
13 15-04-2021 03:00:00 -0.3 C 4.41 g/m*3 -0.3 C 0 km/h
14 15-04-2021 03:05:00 -0.3 C 4.41 g/m*3 -0.3 C 0 km/h
15 15-04-2021 03:10:00 -0.3 C 4.41 g/m*3 -0.3 C 0 km/h
16 15-04-2021 03:15:00 -0.3 C 4.46 g/m*3 -0.3 C 0 km/h
17 15-04-2021 03:20:00 -0.4 C 4.43 g/m*3 -0.4 C 0 km/h
18 15-04-2021 03:25:00 -0.4 C 4.43 g/m*3 -0.4 C 0 km/h
19 15-04-2021 03:30:00 -0.5 C 4.35 g/m*3 -0.5 C 0 km/h
20 15-04-2021 03:35:00 -0.6 C 4.32 g/m*3 -0.6 C 0 km/h
21 15-04-2021 03:40:00 -0.6 C 4.37 g/m*3 -0.6 C 0 km/h
22 15-04-2021 03:45:00 -0.6 C 4.37 g/m*3 -0.6 C 0 km/h
23 15-04-2021 03:50:00 -0.6 C 4.37 g/m*3 -0.6 C 0 km/h
24 15-04-2021 03:55:00 -0.7 C 4.34 g/m*3 -0.7 C 0 km/h
25 15-04-2021 04:00:00 -0.7 C 4.34 g/m*3 -0.7 C 0 km/h
Sensor: Nr:Datum:Temp:Abs-Feuchte:Windchill:Wind:
Aussen-T/F 26 15-04-2021 04:05:00 -0.8 C 4.31 g/m*3 -0.8 C 0 km/h
27 15-04-2021 04:10:00 -0.8 C 4.31 g/m*3 -0.8 C 0 km/h
28 15-04-2021 04:15:00 -0.9 C 4.28 g/m*3 -0.9 C 0 km/h
29 15-04-2021 04:20:00 -0.9 C 4.28 g/m*3 -0.9 C 0 km/h
30 15-04-2021 04:25:00 -0.9 C 4.28 g/m*3 -0.9 C 0 km/h
31 15-04-2021 04:30:00 -0.9 C 4.28 g/m*3 -0.9 C 0 km/h
32 15-04-2021 04:35:00 -0.9 C 4.28 g/m*3 -0.9 C 0 km/h
33 15-04-2021 04:40:00 -0.9 C 4.28 g/m*3 -0.9 C 0 km/h
34 15-04-2021 04:45:00 -0.9 C 4.28 g/m*3 -0.9 C 0 km/h
35 15-04-2021 04:50:00 -0.9 C 4.28 g/m*3 -0.9 C 0 km/h
36 15-04-2021 04:55:00 -0.9 C 4.28 g/m*3 -0.9 C 0 km/h
37 15-04-2021 05:00:00 -0.8 C 4.31 g/m*3 -0.8 C 0 km/h
38 15-04-2021 05:05:00 -0.8 C 4.31 g/m*3 -0.8 C 0 km/h
39 15-04-2021 05:10:00 -0.7 C 4.39 g/m*3 -0.7 C 0 km/h
40 15-04-2021 05:15:00 -0.6 C 4.42 g/m*3 -0.6 C 0 km/h
41 15-04-2021 05:20:00 -0.6 C 4.42 g/m*3 -0.6 C 0 km/h
42 15-04-2021 05:25:00 -0.7 C 4.39 g/m*3 -0.7 C 0 km/h
43 15-04-2021 05:30:00 -0.7 C 4.39 g/m*3 -0.7 C 0 km/h
44 15-04-2021 05:35:00 -0.8 C 4.31 g/m*3 -0.8 C 0 km/h
45 15-04-2021 05:40:00 -0.8 C 4.31 g/m*3 -0.8 C 0 km/h
46 15-04-2021 05:45:00 -0.8 C 4.31 g/m*3 -0.8 C 0 km/h
47 15-04-2021 05:50:00 -0.8 C 4.31 g/m*3 -0.8 C 0 km/h
48 15-04-2021 05:55:00 -0.9 C 4.28 g/m*3 -0.9 C 0 km/h
49 15-04-2021 06:00:00 -0.9 C 4.28 g/m*3 -0.9 C 0 km/h
50 15-04-2021 06:05:00 -0.9 C 4.32 g/m*3 -0.9 C 0 km/h
Sensor: Nr:Datum:Temp:Abs-Feuchte:Windchill:Wind:
Aussen-T/F 51 15-04-2021 06:10:00 -1 C 4.29 g/m*3 -1 C 0 km/h
52 15-04-2021 06:15:00 -1.1 C 4.26 g/m*3 -1.1 C 0 km/h
53 15-04-2021 06:20:00 -1.1 C 4.26 g/m*3 -1.1 C 0 km/h
54 15-04-2021 06:25:00 -1.1 C 4.26 g/m*3 -1.1 C 0 km/h
55 15-04-2021 06:30:00 -1.1 C 4.26 g/m*3 -1.1 C 0 km/h
56 15-04-2021 06:35:00 -1.1 C 4.26 g/m*3 -1.1 C 0 km/h
57 15-04-2021 06:40:00 -1.2 C 4.24 g/m*3 -1.2 C 0 km/h
58 15-04-2021 06:45:00 -1.2 C 4.24 g/m*3 -1.2 C 0 km/h
59 15-04-2021 06:50:00 -1.2 C 4.24 g/m*3 -1.2 C 0 km/h
60 15-04-2021 06:55:00 -1.3 C 4.21 g/m*3 -1.3 C 0 km/h
61 15-04-2021 07:00:00 -1.3 C 4.21 g/m*3 -1.3 C 0 km/h
62 15-04-2021 07:05:00 -1.3 C 4.21 g/m*3 -1.3 C 0 km/h
63 15-04-2021 07:10:00 -1.2 C 4.24 g/m*3 -1.2 C 0 km/h
64 15-04-2021 07:15:00 -1.2 C 4.24 g/m*3 -1.2 C 0 km/h
65 15-04-2021 07:20:00 -1.1 C 4.26 g/m*3 -1.1 C 0 km/h
66 15-04-2021 07:25:00 -1.1 C 4.26 g/m*3 -1.1 C 0 km/h
67 15-04-2021 07:30:00 -1.1 C 4.26 g/m*3 -1.1 C 0 km/h
68 15-04-2021 07:35:00 -1 C 4.29 g/m*3 -1 C 0 km/h
69 15-04-2021 07:40:00 -1 C 4.29 g/m*3 -1 C 0 km/h
70 15-04-2021 07:45:00 -1 C 4.29 g/m*3 -1 C 0 km/h
71 15-04-2021 07:50:00 -0.9 C 4.32 g/m*3 -0.9 C 0 km/h
72 15-04-2021 07:55:00 -0.9 C 4.32 g/m*3 -0.9 C 0 km/h
73 15-04-2021 08:00:00 -0.9 C 4.32 g/m*3 -0.9 C 0 km/h
74 15-04-2021 08:05:00 -0.9 C 4.32 g/m*3 -0.9 C 0 km/h
75 15-04-2021 08:10:00 -0.8 C 4.35 g/m*3 -0.8 C 0 km/h
Sensor: Nr:Datum:Temp:Abs-Feuchte:Windchill:Wind:
Aussen-T/F 76 15-04-2021 08:15:00 -0.8 C 4.35 g/m*3 -0.8 C 0 km/h
77 15-04-2021 08:20:00 -0.7 C 4.39 g/m*3 -0.7 C 0 km/h
78 15-04-2021 08:25:00 -0.7 C 4.39 g/m*3 -0.7 C 0 km/h
79 15-04-2021 08:30:00 -0.6 C 4.42 g/m*3 -0.6 C 0 km/h
80 15-04-2021 08:35:00 -0.6 C 4.42 g/m*3 -0.6 C 0 km/h
81 15-04-2021 08:40:00 -0.5 C 4.45 g/m*3 -0.5 C 0 km/h
82 15-04-2021 08:45:00 -0.4 C 4.48 g/m*3 -0.4 C 0 km/h
83 15-04-2021 08:50:00 -0.3 C 4.51 g/m*3 -0.3 C 0 km/h
84 15-04-2021 08:55:00 -0.3 C 4.51 g/m*3 -0.3 C 0 km/h
85 15-04-2021 09:00:00 -0.2 C 4.54 g/m*3 -0.2 C 0 km/h
86 15-04-2021 09:05:00 -0.2 C 4.54 g/m*3 -0.2 C 0 km/h
87 15-04-2021 09:10:00 -0.1 C 4.57 g/m*3 -0.1 C 0 km/h
88 15-04-2021 09:15:00 0.1 C 4.68 g/m*3 0.1 C 0 km/h
89 15-04-2021 09:20:00 0.2 C 4.72 g/m*3 0.2 C 1.6 km/h
90 15-04-2021 09:25:00 0.4 C 4.78 g/m*3 0.4 C 0 km/h
91 15-04-2021 09:30:00 0.6 C 4.85 g/m*3 0.6 C 0 km/h
92 15-04-2021 09:35:00 0.7 C 4.88 g/m*3 0.7 C 0 km/h
93 15-04-2021 09:40:00 0.8 C 4.91 g/m*3 0.8 C 0 km/h
94 15-04-2021 09:45:00 0.9 C 4.95 g/m*3 0.9 C 1.6 km/h
95 15-04-2021 09:50:00 1.1 C 5.02 g/m*3 1.1 C 0 km/h
96 15-04-2021 09:55:00 1.2 C 5.05 g/m*3 1.2 C 0 km/h
97 15-04-2021 10:00:00 1.3 C 5.09 g/m*3 1.3 C 0 km/h
98 15-04-2021 10:05:00 1.5 C 5.16 g/m*3 1.5 C 0 km/h
99 15-04-2021 10:10:00 1.7 C 5.23 g/m*3 1.7 C 0 km/h
100 15-04-2021 10:15:00 1.8 C 5.26 g/m*3 1.8 C 0 km/h
Sensor: Nr:Datum:Temp:Abs-Feuchte:Windchill:Wind:
Aussen-T/F 101 15-04-2021 10:20:00 2.1 C 5.37 g/m*3 2.1 C 0 km/h
102 15-04-2021 10:25:00 2.3 C 5.44 g/m*3 2.3 C 0 km/h
103 15-04-2021 10:30:00 2.6 C 5.56 g/m*3 2.6 C 0 km/h

Legende:
   Min
   Max


Maximal/Minimal-Werte vom 15.04.2021 - 15.04.2021

Sensor Min Max Avg
Temp
(Aussen-T/F)
-1.3 °C
15-04-2021  06:55:00
2.6 °C
15-04-2021  10:30:00
-0.41 °C
Abs-Feuchte
(Aussen-T/F)
4.21 g/m*3
15-04-2021  06:55:00
5.56 g/m*3
15-04-2021  10:30:00
4.42 g/m*3
Windchill
(Aussen-T/F)
-1.3 C
15-04-2021  06:55:00
2.6 C
15-04-2021  10:30:00
-0.4 C

Die Daten stammen von einer Davis Vantage Pro 2 Wetter-Station und werden unter Linux mit der Software wview2wettercgi und aufbereitet. Alle Angaben erfolgen ohne Gewähr für ihre Vollständigkeit oder Richtigkeit.
Kontakt: Rainer Krienke krienke@uni-koblenz.de . Meine Webseiten an der Uni Koblenz oder privat.
Version: $Revision: 0.78 $